HS3MXC-2 Weather Reports


Display with metric or nautical units.
time (UTC)temp
F
wind
direction
speed
MPH
gust
MPH
rain 1hr
in
rain 24hr
in
rain mn
in
humidity
%
barometer
mb
20260505101823 83 0.0 0.0 0.00 0.00 0.00 59 994.5
20260505100806 83 0.0 0.0 0.00 0.00 0.00 56 994.4
20260505100259 83 0.0 0.0 0.00 0.00 0.00 57 994.2
20260505095753 83 0.0 0.0 0.00 0.00 0.00 56 994.2
20260505095246 83 0.0 0.0 0.00 0.00 0.00 54 994.2
20260505094739 82 0.0 0.0 0.00 0.00 0.00 55 994.2
20260505094232 80 0.0 0.0 0.00 0.00 0.00 56 994.1
20260505093725 76 0.0 0.0 0.00 0.00 0.00 39 994.0
20260505092707 77 0.0 0.0 0.00 0.00 0.00 41 993.7
20260505092157 76 0.0 0.0 0.00 0.00 0.00 40 994.0
20260505091651 77 0.0 0.0 0.00 0.00 0.00 41 994.3
20260505091143 77 0.0 0.0 0.00 0.00 0.00 41 994.2
20260505090128 78 0.0 0.0 0.00 0.00 0.00 41 994.0
20260505085622 78 0.0 0.0 0.00 0.00 0.00 39 994.1
20260505085115 78 0.0 0.0 0.00 0.00 0.00 39 994.2
20260505084604 78 0.0 0.0 0.00 0.00 0.00 38 994.2
20260505084058 78 0.0 0.0 0.00 0.00 0.00 37 994.0
20260505083550 78 0.0 0.0 0.00 0.00 0.00 37 993.7
20260505083044 78 0.0 0.0 0.00 0.00 0.00 38 993.3
20260505082535 78 0.0 0.0 0.00 0.00 0.00 38 993.6
20260505081521 78 0.0 0.0 0.00 0.00 0.00 37 993.8
20260505081012 78 0.0 0.0 0.00 0.00 0.00 37 993.9
20260505080503 78 0.0 0.0 0.00 0.00 0.00 38 993.8
20260505075954 78 0.0 0.0 0.00 0.00 0.00 38 993.8
20260505075447 78 0.0 0.0 0.00 0.00 0.00 39 993.8
20260505074941 78 0.0 0.0 0.00 0.00 0.00 40 994.0
20260505074434 78 0.0 0.0 0.00 0.00 0.00 38 994.0
20260505073927 79 0.0 0.0 0.00 0.00 0.00 39 994.0
20260505073420 78 0.0 0.0 0.00 0.00 0.00 38 994.0
20260505072911 78 0.0 0.0 0.00 0.00 0.00 39 994.1
20260505071842 78 0.0 0.0 0.00 0.00 0.00 39 994.2
20260505070825 76 0.0 0.0 0.00 0.00 0.00 43 994.4
20260505070318 77 0.0 0.0 0.00 0.00 0.00 43 994.5
20260505065810 77 0.0 0.0 0.00 0.00 0.00 44 994.6
20260505064750 77 0.0 0.0 0.00 0.00 0.00 45 994.9
20260505063735 77 0.0 0.0 0.00 0.00 0.00 45 995.1
20260505063222 77 0.0 0.0 0.00 0.00 0.00 46 995.2
20260505062712 77 0.0 0.0 0.00 0.00 0.00 46 995.4
20260505062204 79 0.0 0.0 0.00 0.00 0.00 45 995.5
20260505061654 79 0.0 0.0 0.00 0.00 0.00 45 995.7
20260505061145 80 0.0 0.0 0.00 0.00 0.00 45 995.8
20260505055623 80 0.0 0.0 0.00 0.00 0.00 47 996.1
20260505055116 81 0.0 0.0 0.00 0.00 0.00 50 996.2
20260505054602 84 0.0 0.0 0.00 0.00 0.00 53 996.4
20260505054055 87 0.0 0.0 0.00 0.00 0.00 53 996.5
20260505053040 88 0.0 0.0 0.00 0.00 0.00 53 996.8
20260505052531 87 0.0 0.0 0.00 0.00 0.00 56 996.9
20260505052023 87 0.0 0.0 0.00 0.00 0.00 61 997.0
20260505051517 87 0.0 0.0 0.00 0.00 0.00 58 997.1
20260505051010 85 0.0 0.0 0.00 0.00 0.00 63 997.1
20260505050501 80 0.0 0.0 0.00 0.00 0.00 40 997.1
20260505041340 78 0.0 0.0 0.00 0.00 0.00 40 998.0
20260505040324 78 0.0 0.0 0.00 0.00 0.00 41 998.1
20260505034758 77 0.0 0.0 0.00 0.00 0.00 41 998.2
20260505034251 77 0.0 0.0 0.00 0.00 0.00 42 998.2
20260505033234 77 0.0 0.0 0.00 0.00 0.00 45 998.3
20260505032220 75 0.0 0.0 0.00 0.00 0.00 48 998.3
20260505031712 76 0.0 0.0 0.00 0.00 0.00 50 998.3
20260505030659 76 0.0 0.0 0.00 0.00 0.00 50 998.4
20260505024620 79 0.0 0.0 0.00 0.00 0.00 54 998.3
20260505024104 79 0.0 0.0 0.00 0.00 0.00 53 998.3
20260505023553 79 0.0 0.0 0.00 0.00 0.00 55 998.3
20260505023047 78 0.0 0.0 0.00 0.00 0.00 56 998.3
20260505022025 79 0.0 0.0 0.00 0.00 0.00 61 998.5
20260505021516 78 0.0 0.0 0.00 0.00 0.00 60 998.5
20260505021005 77 0.0 0.0 0.00 0.00 0.00 53 998.5
20260505015436 79 0.0 0.0 0.00 0.00 0.00 56 998.4
20260505013910 80 0.0 0.0 0.00 0.00 0.00 63 998.3
20260505013401 80 0.0 0.0 0.00 0.00 0.00 66 998.3
20260505012854 81 0.0 0.0 0.00 0.00 0.00 70 998.4
20260505012347 84 0.0 0.0 0.00 0.00 0.00 73 998.4
20260505011840 84 0.0 0.0 0.00 0.00 0.00 73 998.4
20260505011333 83 0.0 0.0 0.00 0.00 0.00 73 998.5
20260505010826 84 0.0 0.0 0.00 0.00 0.00 73 998.4
20260505010318 83 0.0 0.0 0.00 0.00 0.00 74 998.4
20260505005808 83 0.0 0.0 0.00 0.00 0.00 74 998.3
20260505004743 83 0.0 0.0 0.00 0.00 0.00 75 998.2
20260505004236 83 0.0 0.0 0.00 0.00 0.00 75 998.1
20260505003729 83 0.0 0.0 0.00 0.00 0.00 76 998.0
20260505003223 83 0.0 0.0 0.00 0.00 0.00 76 998.0
20260505002716 83 0.0 0.0 0.00 0.00 0.00 76 998.0
20260505002209 83 0.0 0.0 0.00 0.00 0.00 77 997.9
20260505001701 83 0.0 0.0 0.00 0.00 0.00 77 997.9
20260505001154 83 0.0 0.0 0.00 0.00 0.00 78 997.9
20260505000138 83 0.0 0.0 0.00 0.00 0.00 79 997.8
20260504235631 83 0.0 0.0 0.00 0.00 0.00 79 997.8
20260504235124 83 0.0 0.0 0.00 0.00 0.00 79 997.7
20260504234617 83 0.0 0.0 0.00 0.00 0.00 78 997.5
20260504234110 83 0.0 0.0 0.00 0.00 0.00 76 997.4
20260504233604 83 0.0 0.0 0.00 0.00 0.00 74 997.3
20260504233057 83 0.0 0.0 0.00 0.00 0.00 73 997.1
20260504232550 83 0.0 0.0 0.00 0.00 0.00 73 997.0
20260504232043 83 0.0 0.0 0.00 0.00 0.00 73 997.1
20260504231536 83 0.0 0.0 0.00 0.00 0.00 73 997.1
20260504230522 83 0.0 0.0 0.00 0.00 0.00 73 997.1
20260504225508 83 0.0 0.0 0.00 0.00 0.00 73 997.1
20260504224454 83 0.0 0.0 0.00 0.00 0.00 72 997.0
20260504223946 83 0.0 0.0 0.00 0.00 0.00 72 997.0
20260504223438 83 0.0 0.0 0.00 0.00 0.00 72 996.9
20260504222931 83 0.0 0.0 0.00 0.00 0.00 71 996.9
20260504222425 83 0.0 0.0 0.00 0.00 0.00 71 996.9
20260504221917 83 0.0 0.0 0.00 0.00 0.00 71 996.9
20260504221411 83 0.0 0.0 0.00 0.00 0.00 71 996.9
20260504220904 83 0.0 0.0 0.00 0.00 0.00 71 996.9
20260504220356 83 0.0 0.0 0.00 0.00 0.00 71 996.9
20260504215848 83 0.0 0.0 0.00 0.00 0.00 71 997.0
20260504215342 83 0.0 0.0 0.00 0.00 0.00 71 997.0
20260504214834 83 0.0 0.0 0.00 0.00 0.00 71 996.9
20260504214327 83 0.0 0.0 0.00 0.00 0.00 71 996.8
20260504213820 83 0.0 0.0 0.00 0.00 0.00 71 996.8
20260504213312 83 0.0 0.0 0.00 0.00 0.00 71 996.7
20260504212806 83 0.0 0.0 0.00 0.00 0.00 71 996.5
20260504212259 83 0.0 0.0 0.00 0.00 0.00 71 996.5
20260504211245 83 0.0 0.0 0.00 0.00 0.00 71 996.4
20260504210732 83 0.0 0.0 0.00 0.00 0.00 71 996.3
20260504210225 83 0.0 0.0 0.00 0.00 0.00 71 996.3
20260504205719 83 0.0 0.0 0.00 0.00 0.00 71 996.3
20260504205212 83 0.0 0.0 0.00 0.00 0.00 71 996.4
20260504204704 83 0.0 0.0 0.00 0.00 0.00 71 996.4
20260504204158 83 0.0 0.0 0.00 0.00 0.00 71 996.4
20260504203651 83 0.0 0.0 0.00 0.00 0.00 71 996.4
20260504203144 83 0.0 0.0 0.00 0.00 0.00 71 996.3
20260504202638 83 0.0 0.0 0.00 0.00 0.00 71 996.3
20260504202130 83 0.0 0.0 0.00 0.00 0.00 71 996.2
20260504201623 83 0.0 0.0 0.00 0.00 0.00 71 996.2
20260504201116 83 0.0 0.0 0.00 0.00 0.00 71 996.2
20260504200609 83 0.0 0.0 0.00 0.00 0.00 71 996.2
20260504195555 83 0.0 0.0 0.00 0.00 0.00 70 996.3
20260504195047 83 0.0 0.0 0.00 0.00 0.00 70 996.4
20260504194540 83 0.0 0.0 0.00 0.00 0.00 70 996.4
20260504194032 83 0.0 0.0 0.00 0.00 0.00 70 996.4
20260504193525 83 0.0 0.0 0.00 0.00 0.00 70 996.4
20260504193018 83 0.0 0.0 0.00 0.00 0.00 70 996.4
20260504192512 83 0.0 0.0 0.00 0.00 0.00 70 996.5
20260504191457 83 0.0 0.0 0.00 0.00 0.00 70 996.4
20260504190949 83 0.0 0.0 0.00 0.00 0.00 70 996.4
20260504185934 84 0.0 0.0 0.00 0.00 0.00 70 996.5
20260504185427 84 0.0 0.0 0.00 0.00 0.00 70 996.6
20260504184918 84 0.0 0.0 0.00 0.00 0.00 70 996.6
20260504184412 84 0.0 0.0 0.00 0.00 0.00 70 996.6
20260504183905 84 0.0 0.0 0.00 0.00 0.00 70 996.6
20260504183351 84 0.0 0.0 0.00 0.00 0.00 70 996.6
20260504182330 84 0.0 0.0 0.00 0.00 0.00 70 996.6
20260504181823 84 0.0 0.0 0.00 0.00 0.00 70 996.6
20260504181317 84 0.0 0.0 0.00 0.00 0.00 70 996.7
20260504180303 84 0.0 0.0 0.00 0.00 0.00 70 996.7
20260504175756 84 0.0 0.0 0.00 0.00 0.00 70 996.7
20260504175249 84 0.0 0.0 0.00 0.00 0.00 69 996.7
20260504174234 84 0.0 0.0 0.00 0.00 0.00 69 996.8
20260504173727 84 0.0 0.0 0.00 0.00 0.00 69 997.0
20260504173220 84 0.0 0.0 0.00 0.00 0.00 69 997.1
20260504172713 84 0.0 0.0 0.00 0.00 0.00 69 997.2
20260504172205 84 0.0 0.0 0.00 0.00 0.00 69 997.2
20260504171151 84 0.0 0.0 0.00 0.00 0.00 69 997.3
20260504170644 84 0.0 0.0 0.00 0.00 0.00 69 997.3
20260504141141 85 0.0 0.0 0.00 0.00 0.00 67 996.7
20260504140629 85 0.0 0.0 0.00 0.00 0.00 67 996.7
20260504140119 85 0.0 0.0 0.00 0.00 0.00 67 996.6
20260504130429 86 0.0 0.0 0.00 0.00 0.00 66 996.7
20260504120240 87 0.0 0.0 0.00 0.00 0.00 64 996.4
20260504110108 89 0.0 0.0 0.00 0.00 0.00 62 996.3